Location: Newark
(44.6394°N, 22.2943°E)
Time: 11:57:03
(UTC+00:00)

LilacSat-2 - Visible Passes

Search period start: 30 November 2023 00:00
Search period end: 10 December 2023 00:00
Orbit: 490 x 507 km, 97.5° (Epoch: 30 November)

Date Brightness Start Highest point End Pass type
(mag) Time Alt. Az. Time Alt. Az. Time Alt. Az.
30 Nov ? 04:15:17 10° NNE 04:18:41 32° E 04:22:03 10° SSE visible
30 Nov ? 16:28:25 10° SSW 16:31:39 30° W 16:34:56 10° NNW visible
01 Dec ? 03:55:48 10° NE 03:58:34 19° E 04:01:18 10° SE visible
01 Dec ? 16:08:00 10° S 16:11:34 53° W 16:15:11 10° NNW visible
02 Dec ? 03:37:03 10° ENE 03:38:22 12° E 03:39:41 10° ESE visible
02 Dec ? 05:08:45 10° N 05:12:24 52° WNW 05:16:01 10° SSW visible
02 Dec ? 15:47:53 10° SSE 15:51:32 83° ENE 15:55:14 10° N visible
03 Dec ? 04:48:39 10° NNE 04:52:23 86° ESE 04:56:07 10° SSW visible
03 Dec ? 15:28:02 10° SE 15:31:32 46° ENE 15:35:04 10° N visible
03 Dec ? 17:03:51 10° WSW 17:05:30 13° W 17:07:11 10° WNW visible
04 Dec ? 04:28:41 10° NNE 04:32:18 47° E 04:35:54 10° S visible
04 Dec ? 16:42:25 10° SW 16:45:16 21° W 16:48:09 10° NW visible
05 Dec ? 04:08:55 10° NE 04:12:09 27° E 04:15:21 10° SSE visible
05 Dec ? 16:21:40 10° SSW 16:25:04 36° W 16:28:30 10° NNW visible
06 Dec ? 03:49:30 10° NE 03:51:54 16° E 03:54:18 10° SE visible
06 Dec ? 16:01:16 10° S 16:04:54 66° WSW 16:08:35 10° NNW visible
07 Dec ? 05:02:00 10° N 05:05:42 65° WNW 05:09:22 10° SSW visible
07 Dec ? 15:41:09 10° SSE 15:44:46 68° ENE 15:48:27 10° N visible
08 Dec ? 04:41:51 10° NNE 04:45:34 70° E 04:49:15 10° S visible
08 Dec ? 15:21:17 10° SE 15:24:41 37° ENE 15:28:07 10° N visible
08 Dec ? 16:56:18 10° SW 16:58:33 15° W 17:00:48 10° NW visible
09 Dec ? 04:21:51 10° NNE 04:25:21 38° E 04:28:50 10° SSE visible
09 Dec ? 16:35:07 10° SSW 16:38:13 26° W 16:41:21 10° NW visible
